{"data":{"norad_id":64596,"epoch":"2026-05-24T12:35:28.241952Z","epoch_age_seconds":109416,"freshness":"FRESH","line1":"1 64596U 25137C   26144.52463243  .00023073  00000+0  78843-3 0  9991","line2":"2 64596  53.1598 343.1303 0001352  94.1300 265.9855 15.30211986 52348","mean_motion":15.30211986,"eccentricity":0.0001352,"inclination_deg":53.1598,"raan_deg":343.1303,"arg_perigee_deg":94.13,"mean_anomaly_deg":265.9855,"bstar":0.00078843,"rev_number":5234,"period_min":94.104608588525,"perigee_km":474.25271325614,"apogee_km":476.10584997869,"semimajor_km":6853.3162816174,"source":"CELESTRAK","updated_at":"2026-05-25T13:38:20.463904Z"}}